• In Hungary
  • List of Countries
  • For 7 days
  • Water Temperature
  • Satellite Maps
  • Weather Map
  • News
  • Weather Widgets
  • user-avatar
    Login

    Hourly Weather Pomorie

    Today, 21 September, Friday

    Time Temperature Precipitation Wind Pressure Humidity
    00:00 +18°C° 0 mm 3 mps 764 mmHg 91%
    01:00 +18°C° 0 mm 3 mps 764 mmHg 91%
    02:00 +17°C° 0 mm 3 mps 764 mmHg 91%
    03:00 +17°C° 0 mm 3 mps 764 mmHg 91%
    04:00 +17°C° 0 mm 3 mps 764 mmHg 91%
    05:00 +17°C° 0 mm 3 mps 763 mmHg 91%
    06:00 +18°C° 0 mm 3 mps 764 mmHg 85%
    07:00 +19°C° 0 mm 3 mps 764 mmHg 79%
    08:00 +21°C° 0 mm 3 mps 764 mmHg 73%
    09:00 +23°C° 0 mm 4 mps 764 mmHg 64%
    10:00 +26°C° 0 mm 4 mps 764 mmHg 55%
    11:00 +28°C° 0 mm 4 mps 764 mmHg 46%
    12:00 +28°C° 0 mm 4 mps 763 mmHg 44%
    13:00 +29°C° 0 mm 4 mps 763 mmHg 41%
    14:00 +29°C° 0 mm 4 mps 763 mmHg 42%
    15:00 +29°C° 0 mm 4 mps 763 mmHg 46%
    16:00 +28°C° 0 mm 4 mps 763 mmHg 49%
    17:00 +27°C° 0 mm 4 mps 763 mmHg 53%
    18:00 +25°C° 0 mm 3 mps 763 mmHg 62%
    19:00 +22°C° 0 mm 3 mps 763 mmHg 72%
    20:00 +20°C° 0 mm 2 mps 763 mmHg 81%
    21:00 +20°C° 0 mm 2 mps 763 mmHg 83%
    22:00 +19°C° 0 mm 2 mps 763 mmHg 85%
    23:00 +20°C° 0 mm 1 mps 763 mmHg 87%

    Tomorrow, 22 September, Saturday

    Time Temperature Precipitation Wind Pressure Humidity
    00:00 +20°C° 0 mm 1 mps 763 mmHg 87%
    01:00 +19°C° 0 mm 1 mps 763 mmHg 88%
    02:00 +19°C° 0 mm 1 mps 763 mmHg 88%
    03:00 +19°C° 0 mm 1 mps 763 mmHg 89%
    04:00 +19°C° 0 mm 1 mps 763 mmHg 89%
    05:00 +18°C° 0 mm 1 mps 763 mmHg 89%
    06:00 +20°C° 0 mm 1 mps 763 mmHg 82%
    07:00 +21°C° 0 mm 1 mps 763 mmHg 75%
    08:00 +23°C° 0 mm 1 mps 763 mmHg 68%
    09:00 +25°C° 0 mm 1 mps 763 mmHg 58%
    10:00 +27°C° 0 mm 1 mps 763 mmHg 48%
    11:00 +30°C° 0 mm 1 mps 763 mmHg 37%
    12:00 +30°C° 0 mm 2 mps 762 mmHg 35%
    13:00 +31°C° 0 mm 2 mps 762 mmHg 32%
    14:00 +32°C° 0 mm 2 mps 762 mmHg 30%
    15:00 +31°C° 0 mm 2 mps 762 mmHg 33%
    16:00 +30°C° 0 mm 3 mps 762 mmHg 37%
    17:00 +29°C° 0 mm 3 mps 761 mmHg 40%
    18:00 +27°C° 0 mm 2 mps 762 mmHg 50%
    19:00 +25°C° 0 mm 2 mps 762 mmHg 59%
    20:00 +21°C° 0 mm 2 mps 762 mmHg 69%
    21:00 +21°C° 0 mm 2 mps 763 mmHg 69%
    22:00 +21°C° 0 mm 2 mps 763 mmHg 69%
    23:00 +21°C° 0 mm 1 mps 763 mmHg 69%

    Day after tomorrow, 23 September, Sunday

    Time Temperature Precipitation Wind Pressure Humidity
    00:00 +20°C° 0 mm 2 mps 763 mmHg 68%
    01:00 +20°C° 0 mm 2 mps 763 mmHg 66%
    02:00 +20°C° 0 mm 2 mps 763 mmHg 64%
    03:00 +20°C° 0 mm 2 mps 763 mmHg 63%
    04:00 +20°C° 0 mm 2 mps 763 mmHg 61%
    05:00 +20°C° 0 mm 2 mps 763 mmHg 59%
    06:00 +21°C° 0 mm 3 mps 763 mmHg 55%
    07:00 +22°C° 0 mm 4 mps 764 mmHg 52%
    08:00 +23°C° 0 mm 4 mps 764 mmHg 49%
    09:00 +26°C° 0 mm 4 mps 765 mmHg 46%
    10:00 +27°C° 0 mm 4 mps 765 mmHg 43%
    11:00 +29°C° 0 mm 4 mps 765 mmHg 40%
    12:00 +30°C° 0 mm 4 mps 765 mmHg 38%
    13:00 +30°C° 0 mm 4 mps 764 mmHg 36%
    14:00 +32°C° 0 mm 4 mps 764 mmHg 34%
    15:00 +30°C° 0 mm 4 mps 764 mmHg 39%
    16:00 +29°C° 0 mm 4 mps 764 mmHg 43%
    17:00 +28°C° 0 mm 4 mps 764 mmHg 48%
    18:00 +26°C° 0 mm 4 mps 764 mmHg 59%
    19:00 +24°C° 0 mm 3 mps 765 mmHg 70%
    20:00 +21°C° 0 mm 3 mps 765 mmHg 81%
    21:00 +20°C° 0 mm 3 mps 765 mmHg 83%
    22:00 +20°C° 0 mm 3 mps 765 mmHg 85%
    23:00 +20°C° 0 mm 3 mps 765 mmHg 87%

    24 September, Monday

    Time Temperature Precipitation Wind Pressure Humidity
    00:00 +19°C° 0 mm 3 mps 765 mmHg 88%
    01:00 +19°C° 0 mm 2 mps 764 mmHg 89%
    02:00 +19°C° 0 mm 2 mps 764 mmHg 91%
    03:00 +19°C° 0 mm 2 mps 763 mmHg 91%
    04:00 +19°C° 0 mm 3 mps 763 mmHg 91%
    05:00 +19°C° 0 mm 3 mps 762 mmHg 92%
    06:00 +20°C° 0 mm 3 mps 762 mmHg 85%
    07:00 +22°C° 0 mm 3 mps 762 mmHg 78%
    08:00 +24°C° 0 mm 3 mps 761 mmHg 71%
    09:00 +26°C° 0 mm 4 mps 761 mmHg 60%
    10:00 +29°C° 0 mm 4 mps 760 mmHg 49%
    11:00 +32°C° 0 mm 4 mps 760 mmHg 38%
    12:00 +34°C° 0 mm 5 mps 759 mmHg 35%
    13:00 +35°C° 0 mm 5 mps 759 mmHg 31%
    14:00 +36°C° 0 mm 5 mps 758 mmHg 27%
    15:00 +36°C° 0 mm 5 mps 758 mmHg 28%
    16:00 +35°C° 0 mm 4 mps 758 mmHg 29%
    17:00 +35°C° 0 mm 4 mps 758 mmHg 30%
    18:00 +32°C° 0 mm 5 mps 759 mmHg 34%
    19:00 +29°C° 0 mm 6 mps 759 mmHg 39%
    20:00 +26°C° 0 mm 7 mps 760 mmHg 43%
    21:00 +23°C° 0 mm 8 mps 761 mmHg 44%
    22:00 +22°C° 0 mm 9 mps 762 mmHg 44%
    23:00 +19°C° 0 mm 10 mps 763 mmHg 44%

    25 September, Tuesday

    Time Temperature Precipitation Wind Pressure Humidity
    00:00 +18°C° 0 mm 10 mps 763 mmHg 46%
    01:00 +17°C° 0 mm 9 mps 764 mmHg 47%
    02:00 +17°C° 0 mm 9 mps 764 mmHg 48%
    03:00 +16°C° 0 mm 8 mps 765 mmHg 49%
    04:00 +16°C° 0 mm 8 mps 765 mmHg 50%
    05:00 +16°C° 0 mm 7 mps 766 mmHg 51%
    06:00 +16°C° 0 mm 7 mps 766 mmHg 52%
    07:00 +16°C° 0 mm 7 mps 767 mmHg 54%
    08:00 +15°C° 0 mm 6 mps 767 mmHg 56%
    09:00 +16°C° 0.1 mm 6 mps 768 mmHg 53%
    10:00 +16°C° 0.1 mm 5 mps 768 mmHg 51%
    11:00 +17°C° 0.1 mm 5 mps 769 mmHg 48%
    12:00 +17°C° 0 mm 5 mps 769 mmHg 47%
    13:00 +18°C° 0 mm 4 mps 769 mmHg 46%
    14:00 +19°C° 0 mm 4 mps 769 mmHg 45%
    15:00 +19°C° 0 mm 4 mps 769 mmHg 44%
    16:00 +18°C° 0 mm 4 mps 769 mmHg 44%
    17:00 +17°C° 0 mm 5 mps 769 mmHg 43%
    18:00 +16°C° 0 mm 5 mps 769 mmHg 46%
    19:00 +15°C° 0 mm 4 mps 769 mmHg 48%
    20:00 +13°C° 0 mm 4 mps 770 mmHg 50%
    21:00 +13°C° 0 mm 4 mps 770 mmHg 49%
    22:00 +12°C° 0 mm 4 mps 770 mmHg 48%
    23:00 +12°C° 0 mm 4 mps 770 mmHg 47%

    26 September, Wednesday

    Time Temperature Precipitation Wind Pressure Humidity
    00:00 +11°C° 0 mm 4 mps 770 mmHg 47%
    01:00 +11°C° 0 mm 4 mps 770 mmHg 47%
    02:00 +10°C° 0 mm 4 mps 770 mmHg 48%
    03:00 +10°C° 0 mm 4 mps 770 mmHg 48%
    04:00 +10°C° 0 mm 4 mps 770 mmHg 48%
    05:00 +10°C° 0 mm 4 mps 770 mmHg 48%
    06:00 +11°C° 0 mm 4 mps 770 mmHg 45%
    07:00 +12°C° 0 mm 4 mps 770 mmHg 43%
    08:00 +14°C° 0 mm 4 mps 770 mmHg 40%
    09:00 +15°C° 0 mm 4 mps 769 mmHg 37%
    10:00 +18°C° 0 mm 4 mps 769 mmHg 34%
    11:00 +20°C° 0 mm 4 mps 769 mmHg 30%
    12:00 +20°C° 0 mm 4 mps 768 mmHg 30%
    13:00 +20°C° 0 mm 4 mps 768 mmHg 29%
    14:00 +20°C° 0 mm 4 mps 767 mmHg 29%
    15:00 +19°C° 0 mm 4 mps 767 mmHg 30%
    16:00 +19°C° 0 mm 4 mps 767 mmHg 32%
    17:00 +17°C° 0 mm 5 mps 767 mmHg 34%
    18:00 +17°C° 0 mm 4 mps 767 mmHg 40%
    19:00 +15°C° 0 mm 4 mps 768 mmHg 46%
    20:00 +14°C° 0 mm 4 mps 768 mmHg 53%
    21:00 +13°C° 0.4 mm 5 mps 768 mmHg 58%
    22:00 +12°C° 0.4 mm 5 mps 768 mmHg 64%
    23:00 +11°C° 0.4 mm 6 mps 768 mmHg 70%
    Show more